Swansboro, NC

2:06 PM EDT on March 29, 2017 (GMT -0400)
Bogue McAlf

Weather History for KNJM - October, 2012

Change the Weather History Date:

Tuesday, October 2, 2012

  Actual Average (KNKT) Record (KNKT)
Temperature  
Mean Temperature 76 °F -  
Max Temperature 79 °F 76 °F 88 °F (2002)
Min Temperature 73 °F 58 °F 45 °F (2001)
Cooling Degree Days 11    
Growing Degree Days 26 (Base 50)    
Moisture  
Dew Point 74 °F    
Average Humidity 90    
Maximum Humidity 94    
Minimum Humidity 81    
Precipitation  
Precipitation 0.44 in - - ()
Sea Level Pressure  
Sea Level Pressure 29.92 in    
Wind  
Wind Speed 8 mph (South)    
Max Wind Speed 15 mph    
Max Gust Speed 32 mph    
Visibility 7 miles    
Events Rain , Thunderstorm    
Averages and records for this station are not official NWS values.
T = Trace of Precipitation, MM = Missing Value Source: NWS Daily Summary

Daily Weather History Graph

Daily Weather History Graph

Search for Another Location

Airport or City:

Trip Planner

Search our weather history database for the weather conditions in past years. The results will help you decide how hot, cold, wet, or windy it might be!

Date:

Astronomy

Oct. 02, 2012 Rise Set
Actual Time 7:03 AM EDT 6:50 PM EDT
Civil Twilight 6:38 AM EDT 7:15 PM EDT
Nautical Twilight 6:09 AM EDT 7:44 PM EDT
Astronomical Twilight 5:40 AM EDT 8:13 PM EDT
Moon 8:10 PM EDT (10/2) 9:21 AM EDT (10/2)
Length of Visible Light 12h 36m
Length of Day
11h 46m
Waning Gibbous, 94% of the Moon is Illuminated
Oct 2
Waning Gibbous
Oct 8
Last Quarter
Oct 15
New
Oct 21
First Quarter
Oct 29
Full

Hourly Weather History & Observations

Time (EDT) Temp. Dew Point Humidity Pressure Visibility Wind Dir Wind Speed Gust Speed Precip Events Conditions
12:57 AM 77.0 °F 75.0 °F 94% 29.90 in 10.0 mi SE 3.5 mph - N/A   Clear
1:57 AM 77.0 °F 75.0 °F 94% 29.89 in 10.0 mi SSE 5.8 mph - N/A   Partly Cloudy
2:57 AM 77.0 °F 72.0 °F 84% 29.88 in 10.0 mi South 9.2 mph - N/A   Scattered Clouds
3:57 AM 78.1 °F 73.0 °F 84% 29.88 in 10.0 mi South 9.2 mph - 0.01 in   Scattered Clouds
4:57 AM 78.1 °F 72.0 °F 81% 29.88 in 10.0 mi SSE 8.1 mph - N/A   Partly Cloudy
5:05 AM 77.0 °F 73.4 °F 89% 29.87 in 10.0 mi South 8.1 mph - 0.00 in Rain , Thunderstorm Light Thunderstorms and Rain
5:15 AM 75.2 °F 71.6 °F 89% 29.89 in 5.0 mi SSW 15.0 mph 32.2 mph 0.02 in Rain , Thunderstorm Heavy Thunderstorms and Rain
5:19 AM 73.4 °F 71.6 °F 94% 29.88 in 1.8 mi SW 13.8 mph 32.2 mph 0.08 in Rain , Thunderstorm Heavy Thunderstorms and Rain
5:30 AM 73.4 °F 71.6 °F 94% 29.88 in 3.0 mi SSW 9.2 mph 31.1 mph 0.16 in Rain , Thunderstorm Thunderstorms and Rain
5:42 AM 73.4 °F 71.6 °F 94% 29.88 in 7.0 mi South 5.8 mph - 0.17 in Rain Light Rain
5:52 AM 73.4 °F 71.6 °F 94% 29.88 in 7.0 mi SSW 4.6 mph - 0.18 in Rain , Thunderstorm Light Thunderstorms and Rain
5:57 AM 73.9 °F 72.0 °F 93% 29.90 in 6.0 mi SSW 5.8 mph - 0.18 in Rain , Thunderstorm Light Thunderstorms and Rain
6:12 AM 75.2 °F 73.4 °F 94% 29.89 in 6.0 mi South 3.5 mph - 0.03 in Rain Light Rain
6:57 AM 75.0 °F 73.0 °F 94% 29.89 in 7.0 mi South 4.6 mph - 0.06 in   Partly Cloudy
7:46 AM 75.2 °F 73.4 °F 94% 29.89 in 6.0 mi SSE 3.5 mph - 0.00 in Rain Light Rain
7:54 AM 75.2 °F 73.4 °F 94% 29.89 in 7.0 mi SSE 4.6 mph - 0.00 in Rain Light Rain
7:57 AM 75.9 °F 73.9 °F 94% 29.91 in 6.0 mi SE 3.5 mph - 0.00 in Rain Light Rain
8:57 AM 77.0 °F 75.0 °F 94% 29.93 in 1.0 mi SSE 5.8 mph - 0.10 in Rain Heavy Rain
9:13 AM 78.8 °F 75.2 °F 89% 29.91 in 2.5 mi SSE 3.5 mph - 0.02 in Rain Light Rain
9:25 AM 78.8 °F 75.2 °F 89% 29.91 in 5.0 mi South 6.9 mph - 0.02 in Rain Light Rain
9:57 AM 78.1 °F 75.9 °F 93% 29.92 in 6.0 mi South 8.1 mph - 0.02 in Rain Light Rain
10:57 AM 77.0 °F 73.9 °F 90% 29.93 in 6.0 mi SSE 8.1 mph - 0.03 in Rain Light Rain
11:57 AM 77.0 °F 73.9 °F 90% 29.93 in 9.0 mi SSW 12.7 mph - 0.02 in Rain Light Rain
12:57 PM 78.1 °F 75.0 °F 90% 29.94 in 7.0 mi SSW 11.5 mph - 0.00 in   Overcast
1:57 PM 78.1 °F 75.0 °F 90% 29.92 in 6.0 mi South 9.2 mph - 0.02 in Rain Light Rain
2:57 PM 79.0 °F 75.0 °F 88% 29.94 in 9.0 mi South 12.7 mph - 0.00 in Rain Light Rain
3:57 PM 78.1 °F 75.0 °F 90% 29.93 in 9.0 mi South 11.5 mph - 0.00 in   Overcast
4:57 PM 78.1 °F 73.9 °F 87% 29.95 in 8.0 mi SSW 9.2 mph - N/A   Overcast
5:11 PM 78.8 °F 75.2 °F 89% 29.95 in 8.0 mi South 9.2 mph - N/A   Overcast
5:57 PM 77.0 °F 73.9 °F 90% 29.96 in 9.0 mi South 12.7 mph - N/A   Overcast
6:57 PM 77.0 °F 73.0 °F 88% 29.98 in 10.0 mi South 12.7 mph - N/A   Mostly Cloudy
7:57 PM 75.9 °F 71.1 °F 85% 29.99 in 10.0 mi South 10.4 mph - N/A   Mostly Cloudy
8:57 PM 77.0 °F 73.0 °F 88% 29.99 in 10.0 mi SSW 8.1 mph - N/A   Mostly Cloudy
9:57 PM 75.9 °F 73.0 °F 91% 30.01 in 10.0 mi SSW 9.2 mph - N/A   Mostly Cloudy
10:57 PM 77.0 °F 73.9 °F 90% 30.03 in 10.0 mi South 9.2 mph - N/A   Mostly Cloudy
11:57 PM 77.0 °F 73.9 °F 90% 30.04 in 10.0 mi South 10.4 mph - N/A   Clear